Regional Weather Roundup
Issued by NWS

Home | Current Version | Previous Version | Graphics & Text | Print | Product List | Glossary On
Versions: 1 2 3 4 5 6 7 8 9 10 11 12 13 14 15 16 17 18 19 20 21 22 23 24 25 26 27 28 29 30 31 32 33 34 35 36 37 38 39 40 41 42 43 44 45 46 47 48 49 50
000
ASUS45 KCYS 262010
RWRWY

WYOMING REGIONAL WEATHER ROUNDUP
NATIONAL WEATHER SERVICE CHEYENNE WY
200 PM MDT TUE AUG 26 2014

NOTE:  "FAIR" INDICATES FEW OR NO CLOUDS BELOW 12,000 FEET
WITH NO SIGNIFICANT WEATHER AND/OR OBSTRUCTIONS TO VISIBILITY.

WYZ001-262100-
YELLOWSTONE NATIONAL PARK

CITY           SKY/WX    TMP DP  RH WIND       PRES   REMARKS
LK YELLOWSTONE   N/A     55  42  61 CALM      30.37S
W YELLOWSTONE  NOT AVBL

$$
WYZ002>013-054>058-071-098>099-262100-
NORTHERN WYOMING

CITY           SKY/WX    TMP DP  RH WIND       PRES   REMARKS
JACKSON        MOSUNNY   68  45  42 SE3       30.26F
CODY           MOSUNNY   70  46  43 NE5       30.19S
GREYBULL       MOSUNNY   74  46  36 W6        30.13F
WORLAND        SUNNY     73  50  44 VRB3      30.15S
SHERIDAN       SUNNY     75  47  36 N8        30.15F
BUFFALO        SUNNY     70  47  43 N9        30.20R
GILLETTE       SUNNY     75  50  41 VRB7      30.15S
HULETT         FAIR      72  52  49 MISG      30.16
NEWCASTLE      FAIR      75  48  38 SE5       30.15

$$
WYZ014>020-022>026-101>103-262100-
CENTRAL WYOMING

CITY           SKY/WX    TMP DP  RH WIND       PRES   REMARKS
BIG PINEY      SUNNY     65  47  52 S6        30.31F
PINEDALE       CLEAR     64  43  45 SE6       30.31F
DUBOIS         CLOUDY    63  34  34 NW14      30.27R
LANDER         MOSUNNY   72  46  39 VRB3      30.19F
RIVERTON       MOSUNNY   70  48  45 NE10G17   30.20F
CASPER         MOSUNNY   79  46  31 W13       30.17S
DOUGLAS        MOSUNNY   79  48  33 NW5       30.17F

$$
WYZ021-027>030-104>119-262100-
SOUTHERN WYOMING

CITY           SKY/WX    TMP DP  RH WIND       PRES   REMARKS
EVANSTON       MOSUNNY   68  44  42 VRB5      30.28F
KEMMERER       PTCLDY    64  43  45 SW3       30.31F
FORT BRIDGER   FAIR      67  49  51 NE7       30.32F
ROCK SPRINGS   PTSUNNY   68  41  37 NW7       30.28F
DIXON          FAIR      69  49  48 S9        30.31S
RAWLINS        MOSUNNY   72  46  39 W14       30.28S
SARATOGA       FAIR      68  46  45 MISG      30.30F
LARAMIE        PTSUNNY   71  41  33 W10       30.28F
CHEYENNE       PTSUNNY   71  55  56 SW9G21    30.24F
TORRINGTON     PTSUNNY   79  56  45 S7        30.10F
PINE BLUFFS    FAIR      79  52  38 SW8G18    30.18F

$$


USA.gov is the U.S. government's official web portal to all federal, state and local government web resources and services.